Los Angeles Weather Center

Moon Phase Calendar



Online Cameras

 


      

Current Conditions in Rossmoor
9/27/2021 11:55:22 PM

64°F
Feels Like 64
Clouds
Humidity
83%
Pressure
30"
Wind
2 mph (NNE)
Dew Point
59°F
UV Index
0/10 (Low)
Visibility
6 mi

Hourly Forecast

Date & Time Mon, Sep 27
11:00 PM
Tue, Sep 28
12:00 AM
Tue, Sep 28
1:00 AM
Tue, Sep 28
2:00 AM
Tue, Sep 28
3:00 AM
Tue, Sep 28
4:00 AM
Tue, Sep 28
5:00 AM
Tue, Sep 28
6:00 AM
Tue, Sep 28
7:00 AM
Tue, Sep 28
8:00 AM
Tue, Sep 28
9:00 AM
Tue, Sep 28
10:00 AM
Tue, Sep 28
11:00 AM
Tue, Sep 28
12:00 PM
Tue, Sep 28
1:00 PM
Tue, Sep 28
2:00 PM
Tue, Sep 28
3:00 PM
Tue, Sep 28
4:00 PM
Tue, Sep 28
5:00 PM
Tue, Sep 28
6:00 PM
Tue, Sep 28
7:00 PM
Tue, Sep 28
8:00 PM
Tue, Sep 28
9:00 PM
Tue, Sep 28
10:00 PM
Tue, Sep 28
11:00 PM
Wed, Sep 29
12:00 AM
Wed, Sep 29
1:00 AM
Wed, Sep 29
2:00 AM
Wed, Sep 29
3:00 AM
Wed, Sep 29
4:00 AM
Wed, Sep 29
5:00 AM
Wed, Sep 29
6:00 AM
Wed, Sep 29
7:00 AM
Wed, Sep 29
8:00 AM
Wed, Sep 29
9:00 AM
Wed, Sep 29
10:00 AM
Wed, Sep 29
11:00 AM
Wed, Sep 29
12:00 PM
Wed, Sep 29
1:00 PM
Wed, Sep 29
2:00 PM
Wed, Sep 29
3:00 PM
Wed, Sep 29
4:00 PM
Wed, Sep 29
5:00 PM
Wed, Sep 29
6:00 PM
Wed, Sep 29
7:00 PM
Wed, Sep 29
8:00 PM
Wed, Sep 29
9:00 PM
Wed, Sep 29
10:00 PM
Condition
Clouds

Clouds

Clouds

Clouds

Clouds

Clouds

Clouds

Clouds

Clouds

Clouds

Clouds

Clouds

Clouds

Clouds

Clouds

Clouds

Clouds

Clouds

Clouds

Clear

Clear

Clear

Clear

Clear

Clouds

Clouds

Clouds

Clouds

Clouds

Clouds

Clouds

Clouds

Clouds

Clouds

Clouds

Clouds

Clouds

Clear

Clear

Clouds

Clouds

Clouds

Clouds

Clear

Clear

Clear

Clear

Clear
Temperature 65°F64°F65°F65°F65°F66°F66°F66°F66°F67°F67°F67°F68°F69°F70°F70°F70°F70°F69°F68°F67°F66°F66°F66°F66°F66°F66°F66°F66°F66°F66°F66°F66°F66°F67°F68°F69°F70°F71°F71°F71°F71°F70°F70°F69°F69°F69°F68°F
Feels Like 65°F64°F65°F65°F65°F66°F66°F66°F66°F66°F67°F67°F68°F69°F69°F70°F70°F69°F69°F68°F67°F66°F66°F66°F66°F66°F66°F66°F65°F65°F65°F65°F65°F66°F67°F68°F69°F70°F71°F70°F71°F70°F70°F69°F69°F68°F68°F68°F
Cloudiness 86%90%90%90%92%93%95%99%93%94%94%95%96%96%95%93%93%94%85%5%8%9%9%10%11%90%50%63%61%59%65%100%100%100%78%63%54%8%6%16%16%17%16%8%8%9%8%9%
Visibility 6 mi6 mi6 mi6 mi6 mi6 mi6 mi6 mi6 mi6 mi6 mi6 mi6 mi6 mi6 mi6 mi6 mi6 mi6 mi6 mi6 mi6 mi6 mi6 mi6 mi6 mi6 mi6 mi6 mi6 mi6 mi6 mi6 mi6 mi6 mi6 mi6 mi6 mi6 mi6 mi6 mi6 mi6 mi6 mi6 mi6 mi6 mi6 mi
Precipitation 0%0%0%0%0%0%0%0%0%0%0%0%0%0%0%0%0%0%0%0%0%0%0%0%0%0%0%0%0%0%0%0%0%0%0%0%0%0%0%0%0%0%0%0%0%0%0%0%
Humidity 81%83%81%79%77%74%72%71%70%70%69%69%67%66%65%64%64%65%66%69%71%73%74%75%75%75%74%73%72%72%72%71%71%70%68%65%62%60%59%59%59%60%60%62%63%63%65%66%
Dew Point 59°F59°F59°F58°F58°F57°F57°F57°F56°F56°F56°F57°F57°F57°F57°F57°F57°F57°F57°F57°F57°F57°F57°F57°F57°F57°F57°F57°F56°F56°F56°F56°F56°F56°F56°F56°F55°F55°F55°F55°F56°F56°F55°F56°F56°F56°F56°F56°F
Pressure 30"30"30"29.97"29.94"29.94"29.91"29.91"29.91"29.91"29.94"29.91"29.91"29.91"29.88"29.88"29.85"29.83"29.83"29.83"29.83"29.83"29.85"29.85"29.85"29.85"29.85"29.85"29.85"29.85"29.85"29.88"29.88"29.88"29.91"29.91"29.91"29.91"29.88"29.88"29.85"29.85"29.85"29.85"29.88"29.88"29.91"29.91"
Wind Speed 5.5 mph4.8 mph4.8 mph3.9 mph6.1 mph4 mph5.1 mph4.6 mph4.3 mph5 mph4.9 mph5.7 mph6.2 mph7.2 mph7.9 mph8.5 mph8.7 mph8.8 mph8.9 mph9.2 mph7.4 mph5.8 mph5.9 mph6.9 mph7 mph8.2 mph8.3 mph6.9 mph6.3 mph6 mph6.2 mph5.3 mph5.2 mph5 mph5.5 mph5.2 mph6 mph7.1 mph8.1 mph8.7 mph10 mph10.3 mph10 mph8.5 mph6.8 mph5.3 mph4.5 mph3.8 mph
Wind
Direction
183°
S
184°
S
157°
SSE
147°
SSE
136°
SE
161°
SSE
154°
SSE
154°
SSE
162°
SSE
158°
SSE
159°
SSE
163°
SSE
177°
S
188°
S
197°
SSW
214°
SW
215°
SW
224°
SW
228°
SW
238°
WSW
231°
SW
207°
SSW
188°
S
170°
S
155°
SSE
136°
SE
137°
SE
148°
SSE
149°
SSE
152°
SSE
141°
SE
149°
SSE
149°
SSE
170°
S
176°
S
193°
SSW
203°
SSW
217°
SW
222°
SW
222°
SW
232°
SW
242°
WSW
250°
WSW
252°
WSW
254°
WSW
243°
WSW
226°
SW
218°
SW

Daily Forecast

Date High Low Precip. Humidity
Today
Sep 27

Clouds
68 °F
63 °F
0%
74%
Tuesday
Sep 28

Clouds
70 °F
64 °F
0%
66%
Wednesday
Sep 29

Clear
71 °F
66 °F
0%
60%
Thursday
Sep 30

Clear
79 °F
67 °F
0%
42%
Friday
Oct 1

Clear
81 °F
69 °F
0%
30%
Saturday
Oct 2

Clouds
80 °F
69 °F
0%
38%
Sunday
Oct 3

Clear
80 °F
70 °F
0%
37%
Monday
Oct 4

Clouds
77 °F
69 °F
0%
51%
Tuesday
Oct 5

Clouds
72 °F
67 °F
0%
57%
Wednesday
Oct 6

Clouds
71 °F
66 °F
0%
67%
Thursday
Oct 7

Clouds
70 °F
65 °F
0%
65%
Friday
Oct 8

Clouds
68 °F
64 °F
0%
64%
Saturday
Oct 9

Clear
70 °F
63 °F
0%
48%
Sunday
Oct 10

Clear
76 °F
64 °F
0%
37%
Monday
Oct 11

Clear
83 °F
69 °F
0%
19%
Tuesday
Oct 12

Clouds
79 °F
69 °F
0%
30%

Temperature 8-14 Day Outlook



Precipitation 8-14 Day Outlook




Quick Links
Los Angeles News
Los Angeles Photos
Los Angeles Videos




About Us
Contact Us
Site Map
Search Site
Advertise With Us
   
LosAngeles.USCoast.info
THE LOS ANGELES WEBSITE

Copyright 2021, Coastal Town
Privacy    |    Legal